Boise, ID

8:22 PM MDT on September 26, 2016 (GMT -0600)
Boise Air Term

Weather History for KBOI - July, 2013

Change the Weather History Date:

Thursday, July 4, 2013

  Actual Average Record
Temperature  
Mean Temperature 82 °F 73 °F  
Max Temperature 96 °F 88 °F 106 °F (1937)
Min Temperature 67 °F 58 °F 43 °F (1959)
Degree Days  
Heating Degree Days 0 1  
Month to date heating degree days 0 4  
Since 1 June heating degree days 35 68  
Since 1 July heating degree days 0 4  
Cooling Degree Days 17 9  
Month to date cooling degree days 96 33  
Year to date cooling degree days 334 216  
Since 1 June cooling degree days 287 172  
Growing Degree Days 31 (Base 50)    
Moisture  
Dew Point 45 °F    
Average Humidity 31    
Maximum Humidity 49    
Minimum Humidity 12    
Precipitation  
Precipitation 0.00 in 0.01 in 0.49 in (1914)
Month to date precipitation T 0.05  
Year to date precipitation 4.33 6.98  
Snow  
Snow 0.00 in 0.00 in 0.00 in (2006)
Month to date snowfall 0.0 0.0  
Since 1 July snowfall 0.0 0.0  
Snow Depth 0.00 in    
Sea Level Pressure  
Sea Level Pressure 29.79 in    
Wind  
Wind Speed 7 mph (West)    
Max Wind Speed 23 mph    
Max Gust Speed 30 mph    
Visibility 10 miles    
Events      
T = Trace of Precipitation, MM = Missing Value Source: NWS Daily Summary

Daily Weather History Graph

Daily Weather History Graph

Search for Another Location

Airport or City:

Trip Planner

Search our weather history database for the weather conditions in past years. The results will help you decide how hot, cold, wet, or windy it might be!

Date:

Astronomy

Jul. 04, 2013 Rise Set
Actual Time 6:09 AM MDT 9:29 PM MDT
Civil Twilight 5:34 AM MDT 10:04 PM MDT
Nautical Twilight 4:47 AM MDT 10:50 PM MDT
Astronomical Twilight 3:50 AM MDT 11:47 PM MDT
Moon 3:31 AM MDT (7/4) 6:35 PM MDT (7/4)
Length of Visible Light 16h 30m
Length of Day
15h 19m
Waning Crescent, 11% of the Moon is Illuminated
Jul 4
Waning Crescent
Jul 8
New
Jul 15
First Quarter
Jul 22
Full
Jul 29
Last Quarter

Hourly Weather History & Observations

Time (MDT) Temp. Dew Point Humidity Pressure Visibility Wind Dir Wind Speed Gust Speed Precip Events Conditions
12:53 AM 78.1 °F 51.1 °F 39% 29.82 in 10.0 mi West 3.5 mph - N/A   Clear
1:53 AM 75.0 °F 51.1 °F 43% 29.83 in 10.0 mi WNW 3.5 mph - N/A   Clear
2:53 AM 71.1 °F 52.0 °F 51% 29.84 in 10.0 mi WSW 4.6 mph - N/A   Clear
3:53 AM 73.0 °F 46.9 °F 39% 29.85 in 10.0 mi WNW 6.9 mph - N/A   Clear
4:53 AM 70.0 °F 46.9 °F 44% 29.84 in 10.0 mi Calm Calm - N/A   Clear
5:53 AM 69.1 °F 46.0 °F 44% 29.83 in 10.0 mi Calm Calm - N/A   Clear
6:53 AM 66.9 °F 46.9 °F 49% 29.84 in 10.0 mi South 4.6 mph - N/A   Clear
7:53 AM 71.1 °F 46.0 °F 41% 29.84 in 10.0 mi Calm Calm - N/A   Clear
8:53 AM 75.9 °F 45.0 °F 33% 29.84 in 10.0 mi Calm Calm - N/A   Clear
9:53 AM 79.0 °F 45.0 °F 30% 29.85 in 10.0 mi NW 6.9 mph - N/A   Clear
10:53 AM 79.0 °F 46.0 °F 31% 29.85 in 10.0 mi West 6.9 mph - N/A   Clear
11:53 AM 82.0 °F 46.0 °F 28% 29.84 in 10.0 mi West 4.6 mph - N/A   Clear
12:53 PM 89.1 °F 45.0 °F 22% 29.82 in 10.0 mi NW 11.5 mph - N/A   Clear
1:53 PM 91.9 °F 42.1 °F 18% 29.80 in 10.0 mi WNW 12.7 mph - N/A   Clear
2:53 PM 91.9 °F 37.9 °F 15% 29.79 in 10.0 mi WNW 10.4 mph - N/A   Clear
3:53 PM 95.0 °F 37.0 °F 13% 29.75 in 10.0 mi North 15.0 mph - N/A   Clear
4:53 PM 96.1 °F 36.0 °F 12% 29.72 in 10.0 mi North 13.8 mph - N/A   Clear
5:53 PM 93.9 °F 36.0 °F 13% 29.70 in 10.0 mi NNW 13.8 mph - N/A   Clear
6:53 PM 90.0 °F 35.1 °F 14% 29.75 in 10.0 mi WNW 10.4 mph - N/A   Clear
7:53 PM 81.0 °F 48.9 °F 33% 29.73 in 10.0 mi SSE 10.4 mph - N/A   Scattered Clouds
8:53 PM 82.0 °F 46.9 °F 29% 29.71 in 10.0 mi West 3.5 mph - N/A   Clear
9:53 PM 75.9 °F 51.1 °F 42% 29.73 in 10.0 mi South 5.8 mph - N/A   Clear
10:53 PM 75.9 °F 51.1 °F 42% 29.75 in 10.0 mi SE 6.9 mph - N/A   Clear
11:53 PM 73.0 °F 51.1 °F 46% 29.74 in 10.0 mi South 4.6 mph - N/A   Clear